GLZZI EGTK-EGHR

Flight info

Callsign GLZZI
Flight time N/A
Altitude 2000
Route VFR VIA ASHDOWN PARK
Aircraft EC45/L-SDFGRY/C

Departure

Time 2026-04-18 09:44
Airport London Oxford Airport (EGTK)

Arrival

Time N/A
Airport Goodwood Aerodrome (EGHR)
Time Latitude Longitude Altitude Speed Heading
2026-04-18 09:34 51.83084 -1.31470 263 ft 0 kts 250°
2026-04-18 09:43 51.83084 -1.31471 265 ft 1 kts 248°
2026-04-18 09:43 51.83087 -1.31513 274 ft 8 kts 246°
2026-04-18 09:43 51.83092 -1.31586 278 ft 8 kts 246°
2026-04-18 09:43 51.83083 -1.31655 283 ft 1 kts 175°
2026-04-18 09:44 51.82902 -1.31603 492 ft 53 kts 169°
2026-04-18 09:44 51.82533 -1.31130 748 ft 82 kts 130°
2026-04-18 09:44 51.82072 -1.30387 801 ft 104 kts 144°
2026-04-18 09:44 51.81439 -1.29802 952 ft 100 kts 157°
2026-04-18 09:45 51.80847 -1.29323 1240 ft 92 kts 161°
2026-04-18 09:45 51.80207 -1.28896 1360 ft 102 kts 166°
2026-04-18 09:45 51.79481 -1.28583 1445 ft 115 kts 177°
2026-04-18 09:45 51.78644 -1.28581 1438 ft 124 kts 190°
2026-04-18 09:46 51.77781 -1.28709 1527 ft 127 kts 184°
2026-04-18 09:46 51.76901 -1.28548 1627 ft 124 kts 178°
2026-04-18 09:46 51.76085 -1.28371 1813 ft 116 kts 179°
2026-04-18 09:46 51.75306 -1.28189 1991 ft 112 kts 178°
2026-04-18 09:47 51.74520 -1.27994 2010 ft 116 kts 178°
2026-04-18 09:47 51.73713 -1.27777 2017 ft 119 kts 177°
2026-04-18 09:47 51.72872 -1.27543 2018 ft 126 kts 176°
2026-04-18 09:47 51.72017 -1.27295 2028 ft 125 kts 176°
2026-04-18 09:48 51.71172 -1.27014 2024 ft 124 kts 175°
2026-04-18 09:48 51.70310 -1.26705 2027 ft 128 kts 174°
2026-04-18 09:48 51.69443 -1.26365 2025 ft 127 kts 172°
2026-04-18 09:48 51.68581 -1.26054 2025 ft 125 kts 176°
2026-04-18 09:49 51.67736 -1.25872 2027 ft 121 kts 179°
2026-04-18 09:49 51.66899 -1.25728 2026 ft 121 kts 180°
2026-04-18 09:49 51.66071 -1.25581 2027 ft 122 kts 180°
2026-04-18 09:49 51.65208 -1.25420 2033 ft 125 kts 178°
2026-04-18 09:50 51.64348 -1.25240 2028 ft 124 kts 179°
2026-04-18 09:50 51.63493 -1.25062 2032 ft 124 kts 178°
2026-04-18 09:50 51.62643 -1.24879 2030 ft 123 kts 179°
2026-04-18 09:50 51.61788 -1.24697 2032 ft 124 kts 179°
2026-04-18 09:51 51.60932 -1.24513 2032 ft 123 kts 179°
2026-04-18 09:51 51.60079 -1.24333 2029 ft 124 kts 180°
2026-04-18 09:51 51.59235 -1.24156 2034 ft 123 kts 179°
2026-04-18 09:51 51.58389 -1.23976 2031 ft 123 kts 180°
2026-04-18 09:52 51.57535 -1.23796 2032 ft 124 kts 179°
2026-04-18 09:52 51.56687 -1.23612 2019 ft 124 kts 180°
2026-04-18 09:52 51.55816 -1.23433 2027 ft 127 kts 179°
2026-04-18 09:52 51.55241 -1.23309 2029 ft 125 kts 179°
2026-04-18 09:53 51.54376 -1.23117 2029 ft 125 kts 178°
2026-04-18 09:53 51.53527 -1.22924 2029 ft 122 kts 178°
2026-04-18 09:53 51.52686 -1.22741 2027 ft 121 kts 179°
2026-04-18 09:53 51.51851 -1.22566 2027 ft 122 kts 179°
2026-04-18 09:54 51.50991 -1.22398 2028 ft 125 kts 178°
2026-04-18 09:54 51.50128 -1.22217 2028 ft 125 kts 179°
2026-04-18 09:54 51.49269 -1.22005 2030 ft 124 kts 173°
2026-04-18 09:54 51.48449 -1.21572 2026 ft 125 kts 165°
2026-04-18 09:55 51.47621 -1.21090 2027 ft 127 kts 165°
2026-04-18 09:55 51.46791 -1.20599 2025 ft 127 kts 164°
2026-04-18 09:55 51.45969 -1.20113 2028 ft 127 kts 164°
2026-04-18 09:55 51.45145 -1.19618 2026 ft 128 kts 167°
2026-04-18 09:56 51.44305 -1.19116 2028 ft 130 kts 165°
2026-04-18 09:56 51.43453 -1.18600 2028 ft 131 kts 166°
2026-04-18 09:56 51.42601 -1.18082 2027 ft 131 kts 165°
2026-04-18 09:56 51.41756 -1.17573 2026 ft 129 kts 165°
2026-04-18 09:57 51.40905 -1.17072 2026 ft 130 kts 164°
2026-04-18 09:57 51.40065 -1.16574 2028 ft 126 kts 164°
2026-04-18 09:57 51.39241 -1.16084 2024 ft 127 kts 166°
2026-04-18 09:57 51.38411 -1.15595 2028 ft 127 kts 165°
2026-04-18 09:58 51.37580 -1.15099 2027 ft 127 kts 165°
2026-04-18 09:58 51.36744 -1.14602 2024 ft 130 kts 167°
2026-04-18 09:58 51.35888 -1.14102 2026 ft 132 kts 166°
2026-04-18 09:58 51.35047 -1.13602 2023 ft 130 kts 167°
2026-04-18 09:59 51.34192 -1.13105 2023 ft 131 kts 167°
2026-04-18 09:59 51.33338 -1.12610 2031 ft 129 kts 166°
2026-04-18 09:59 51.32499 -1.12114 2023 ft 129 kts 166°
2026-04-18 10:00 51.30805 -1.11108 2026 ft 128 kts 164°
2026-04-18 10:00 51.29978 -1.10614 2027 ft 130 kts 165°
2026-04-18 10:00 51.29132 -1.10113 2030 ft 129 kts 164°
2026-04-18 10:00 51.28291 -1.09612 2031 ft 129 kts 165°
2026-04-18 10:01 51.27449 -1.09111 2034 ft 128 kts 164°
2026-04-18 10:01 51.26613 -1.08614 2029 ft 129 kts 166°
2026-04-18 10:01 51.25755 -1.08111 2030 ft 131 kts 165°
2026-04-18 10:01 51.24908 -1.07610 2030 ft 128 kts 165°
2026-04-18 10:02 51.24075 -1.07120 2029 ft 129 kts 166°
2026-04-18 10:02 51.23239 -1.06628 2030 ft 128 kts 164°
2026-04-18 10:02 51.22397 -1.06136 2030 ft 129 kts 163°
2026-04-18 10:02 51.21550 -1.05638 2031 ft 130 kts 163°
2026-04-18 10:03 51.20702 -1.05134 2031 ft 130 kts 163°
2026-04-18 10:03 51.19860 -1.04634 2031 ft 130 kts 163°
2026-04-18 10:03 51.19024 -1.04132 2030 ft 126 kts 164°
2026-04-18 10:03 51.18196 -1.03643 2027 ft 128 kts 166°
2026-04-18 10:04 51.17356 -1.03160 2027 ft 128 kts 165°
2026-04-18 10:04 51.16519 -1.02674 2027 ft 129 kts 165°
2026-04-18 10:04 51.15666 -1.02180 2030 ft 131 kts 165°
2026-04-18 10:04 51.14805 -1.01674 2032 ft 133 kts 165°
2026-04-18 10:05 51.13938 -1.01162 2031 ft 132 kts 165°
2026-04-18 10:05 51.13080 -1.00654 2031 ft 131 kts 165°
2026-04-18 10:05 51.12235 -1.00155 2031 ft 128 kts 164°
2026-04-18 10:05 51.11410 -0.99671 2028 ft 129 kts 165°
2026-04-18 10:06 51.10559 -0.99179 2034 ft 130 kts 163°
2026-04-18 10:06 51.09715 -0.98676 2033 ft 128 kts 163°
2026-04-18 10:06 51.08872 -0.98176 2031 ft 131 kts 165°